Location: Roland
(31.1349°N, 85.4372°W)
Time: 13:30:01
(UTC+00:00)

Explorer 11/Cluster Stage 4 - Pass Details

Date: 28 April 2021
Orbit: 467 x 1257 km, 28.8° (Epoch: 15 May)

Event Time Altitude Azimuth Distance (km) Brightness Sun altitude
Exits shadow 10:15:16 13° 256° (WSW) 1,522 7.4 -9.8°
Maximum altitude 10:18:33 59° 178° (S) 551 5.7 -9.1°
Drops below altitude 10° 10:22:06 10° 97° (E) 1,608 9.3 -8.4°
Sets 10:24:16 0° 93° (E) 2,488 10.5 -8.0°
